Time,TemperatureF,DewpointF,PressureIn,WindDirection,WindDirectionDegrees,WindSpeedMPH,WindSpeedGustMPH,Humidity,HourlyPrecipIn,Conditions,Clouds,dailyrainin,SoftwareType,DateUTC
2013-10-19 00:13:00,34.0,29.0,30.07,SSW,206,0.0,1.0,83,0.00,,,0.00,,2013-10-19 05:13:00,
2013-10-19 00:22:00,34.0,30.0,30.07,SSW,210,0.0,1.0,85,0.00,,,0.00,,2013-10-19 05:22:00,
2013-10-19 00:42:00,34.0,30.0,30.06,SSW,196,0.0,1.0,86,0.00,,,0.00,,2013-10-19 05:42:00,
2013-10-19 00:52:00,34.0,31.0,30.06,SSW,193,0.0,1.0,87,0.00,,,0.00,,2013-10-19 05:52:00,
2013-10-19 01:12:00,34.0,31.0,30.05,SSW,194,0.0,1.0,87,0.00,,,0.00,,2013-10-19 06:12:00,
2013-10-19 01:22:00,34.0,31.0,30.05,SSW,194,0.0,0.0,87,0.00,,,0.00,,2013-10-19 06:22:00,
2013-10-19 01:42:00,33.0,30.0,30.05,SSW,194,0.0,1.0,88,0.00,,,0.00,,2013-10-19 06:42:00,
2013-10-19 01:52:00,33.0,30.0,30.04,SSW,194,0.0,0.0,88,0.00,,,0.00,,2013-10-19 06:52:00,
2013-10-19 02:11:00,33.0,30.0,30.04,SSW,194,0.0,1.0,88,0.00,,,0.00,,2013-10-19 07:11:00,
2013-10-19 02:22:00,33.0,30.0,30.04,SSW,194,0.0,1.0,88,0.00,,,0.00,,2013-10-19 07:22:00,
2013-10-19 02:42:00,32.0,29.0,30.03,SSW,194,0.0,1.0,88,0.00,,,0.00,,2013-10-19 07:42:00,
2013-10-19 02:52:00,32.0,29.0,30.03,SSW,194,0.0,1.0,89,0.00,,,0.00,,2013-10-19 07:52:00,
2013-10-19 03:11:00,32.0,29.0,30.03,SSW,194,0.0,1.0,89,0.00,,,0.00,,2013-10-19 08:11:00,
2013-10-19 03:22:00,32.0,29.0,30.03,SSW,194,0.0,1.0,89,0.00,,,0.00,,2013-10-19 08:22:00,
2013-10-19 03:42:00,32.0,29.0,30.03,SSW,207,0.0,2.0,88,0.00,,,0.00,,2013-10-19 08:42:00,
2013-10-19 03:52:00,32.0,29.0,30.03,SSW,207,0.0,1.0,88,0.00,,,0.00,,2013-10-19 08:52:00,
2013-10-19 04:11:00,33.0,30.0,30.03,SSW,208,0.0,2.0,87,0.00,,,0.00,,2013-10-19 09:11:00,
2013-10-19 04:21:00,33.0,29.0,30.03,SSW,206,0.0,1.0,86,0.00,,,0.00,,2013-10-19 09:21:00,
2013-10-19 04:43:00,32.0,28.0,30.02,SSW,207,0.0,0.0,86,0.00,,,0.00,,2013-10-19 09:43:00,
2013-10-19 04:54:00,32.0,29.0,30.02,SSW,207,0.0,1.0,87,0.00,,,0.00,,2013-10-19 09:54:00,
2013-10-19 05:13:00,32.0,29.0,30.02,SSW,208,0.0,1.0,87,0.00,,,0.00,,2013-10-19 10:13:00,
2013-10-19 05:23:00,31.0,28.0,30.01,SSW,200,0.0,1.0,88,0.00,,,0.00,,2013-10-19 10:23:00,
2013-10-19 05:42:00,31.0,28.0,30.01,South,187,0.0,4.0,88,0.00,,,0.00,,2013-10-19 10:42:00,
2013-10-19 05:53:00,31.0,28.0,30.00,SSW,200,0.0,1.0,88,0.00,,,0.00,,2013-10-19 10:53:00,
2013-10-19 06:12:00,31.0,28.0,30.00,South,184,0.0,3.0,88,0.00,,,0.00,,2013-10-19 11:12:00,
2013-10-19 06:22:00,31.0,28.0,30.01,SW,221,0.0,2.0,89,0.00,,,0.00,,2013-10-19 11:22:00,
2013-10-19 06:42:00,32.0,29.0,30.01,SW,214,0.0,3.0,89,0.00,,,0.00,,2013-10-19 11:42:00,
2013-10-19 06:52:00,32.0,29.0,30.00,South,184,0.0,2.0,89,0.00,,,0.00,,2013-10-19 11:52:00,
2013-10-19 07:12:00,32.0,29.0,29.99,WSW,255,0.0,2.0,88,0.00,,,0.00,,2013-10-19 12:12:00,
2013-10-19 07:22:00,32.0,29.0,29.99,South,185,0.0,3.0,88,0.00,,,0.00,,2013-10-19 12:22:00,
2013-10-19 07:42:00,32.0,29.0,29.99,SW,235,0.0,2.0,87,0.00,,,0.00,,2013-10-19 12:42:00,
2013-10-19 07:52:00,32.0,29.0,29.99,SW,219,0.0,1.0,87,0.00,,,0.00,,2013-10-19 12:52:00,
2013-10-19 08:12:00,32.0,29.0,29.99,SW,232,0.0,7.0,88,0.00,,,0.00,,2013-10-19 13:12:00,
2013-10-19 08:22:00,32.0,29.0,29.99,South,189,0.0,2.0,88,0.00,,,0.00,,2013-10-19 13:22:00,
2013-10-19 08:42:00,32.0,29.0,29.99,SW,225,0.0,2.0,88,0.00,,,0.00,,2013-10-19 13:42:00,
2013-10-19 08:52:00,32.0,29.0,29.98,SW,229,0.0,2.0,87,0.00,,,0.00,,2013-10-19 13:52:00,
2013-10-19 09:11:00,33.0,29.0,29.98,SSW,206,0.0,1.0,86,0.00,,,0.00,,2013-10-19 14:11:00,
2013-10-19 09:21:00,36.0,31.0,29.97,SW,221,0.0,2.0,83,0.00,,,0.00,,2013-10-19 14:21:00,
2013-10-19 09:42:00,39.0,32.0,29.97,SW,219,1.0,4.0,77,0.00,,,0.00,,2013-10-19 14:42:00,
2013-10-19 09:52:00,41.0,33.0,29.96,WSW,240,1.0,8.0,74,0.00,,,0.00,,2013-10-19 14:52:00,
2013-10-19 10:44:00,46.0,35.0,29.96,WSW,254,2.0,10.0,64,0.00,,,0.00,,2013-10-19 15:44:00,
2013-10-19 11:14:00,49.0,35.0,29.96,SW,227,2.0,8.0,59,0.00,,,0.00,,2013-10-19 16:14:00,
2013-10-19 11:24:00,51.0,37.0,29.96,West,268,2.0,8.0,58,0.00,,,0.00,,2013-10-19 16:24:00,
2013-10-19 11:43:00,52.0,36.0,29.96,SW,227,2.0,11.0,54,0.00,,,0.00,,2013-10-19 16:43:00,
2013-10-19 11:53:00,54.0,36.0,29.95,WSW,256,3.0,9.0,51,0.00,,,0.00,,2013-10-19 16:53:00,
2013-10-19 12:13:00,55.0,35.0,29.94,WSW,253,4.0,10.0,46,0.00,,,0.00,,2013-10-19 17:13:00,
2013-10-19 12:22:00,57.0,36.0,29.94,WSW,254,3.0,9.0,45,0.00,,,0.00,,2013-10-19 17:22:00,
2013-10-19 12:43:00,57.0,35.0,29.93,West,271,4.0,15.0,43,0.00,,,0.00,,2013-10-19 17:43:00,
2013-10-19 12:52:00,59.0,35.0,29.93,West,263,3.0,12.0,41,0.00,,,0.00,,2013-10-19 17:52:00,
2013-10-19 13:12:00,59.0,35.0,29.93,West,262,5.0,12.0,40,0.00,,,0.00,,2013-10-19 18:12:00,
2013-10-19 13:22:00,60.0,35.0,29.92,SW,234,5.0,16.0,39,0.00,,,0.00,,2013-10-19 18:22:00,
2013-10-19 13:42:00,60.0,35.0,29.92,SW,222,5.0,12.0,39,0.00,,,0.00,,2013-10-19 18:42:00,
2013-10-19 13:52:00,61.0,35.0,29.91,West,274,3.0,12.0,37,0.00,,,0.00,,2013-10-19 18:52:00,
2013-10-19 14:12:00,61.0,35.0,29.91,WSW,258,4.0,9.0,37,0.00,,,0.00,,2013-10-19 19:12:00,
2013-10-19 14:22:00,61.0,35.0,29.89,West,267,7.0,11.0,37,0.00,,,0.00,,2013-10-19 19:22:00,
2013-10-19 14:42:00,62.0,36.0,29.89,WSW,245,2.0,10.0,38,0.00,,,0.00,,2013-10-19 19:42:00,
2013-10-19 14:52:00,62.0,35.0,29.88,WNW,284,5.0,12.0,36,0.00,,,0.00,,2013-10-19 19:52:00,
2013-10-19 15:12:00,63.0,36.0,29.88,West,268,1.0,14.0,36,0.00,,,0.00,,2013-10-19 20:12:00,
2013-10-19 15:22:00,63.0,35.0,29.88,WSW,257,6.0,15.0,35,0.00,,,0.00,,2013-10-19 20:22:00,
2013-10-19 15:42:00,63.0,36.0,29.87,WSW,237,4.0,16.0,37,0.00,,,0.00,,2013-10-19 20:42:00,
2013-10-19 15:52:00,63.0,35.0,29.87,West,268,3.0,10.0,35,0.00,,,0.00,,2013-10-19 20:52:00,
2013-10-19 16:11:00,63.0,36.0,29.87,WSW,257,4.0,13.0,36,0.00,,,0.00,,2013-10-19 21:11:00,
2013-10-19 16:21:00,63.0,35.0,29.87,WSW,252,4.0,11.0,35,0.00,,,0.00,,2013-10-19 21:21:00,
2013-10-19 16:44:00,62.0,34.0,29.87,NW,309,6.0,16.0,35,0.00,,,0.00,,2013-10-19 21:44:00,
2013-10-19 16:54:00,63.0,36.0,29.87,WNW,287,4.0,10.0,36,0.00,,,0.00,,2013-10-19 21:54:00,
2013-10-19 17:14:00,63.0,35.0,29.86,West,260,6.0,12.0,35,0.00,,,0.00,,2013-10-19 22:14:00,
2013-10-19 17:24:00,63.0,35.0,29.86,WSW,241,4.0,11.0,35,0.00,,,0.00,,2013-10-19 22:24:00,
2013-10-19 17:43:00,63.0,36.0,29.86,West,269,3.0,8.0,36,0.00,,,0.00,,2013-10-19 22:43:00,
2013-10-19 17:53:00,62.0,35.0,29.85,West,280,3.0,8.0,36,0.00,,,0.00,,2013-10-19 22:53:00,
2013-10-19 18:12:00,62.0,35.0,29.85,WNW,295,2.0,10.0,37,0.00,,,0.00,,2013-10-19 23:12:00,
2013-10-19 18:22:00,62.0,37.0,29.85,West,265,1.0,4.0,39,0.00,,,0.00,,2013-10-19 23:22:00,
2013-10-19 18:42:00,61.0,37.0,29.85,West,268,0.0,1.0,41,0.00,,,0.00,,2013-10-19 23:42:00,
2013-10-19 18:52:00,60.0,40.0,29.84,West,268,0.0,0.0,48,0.00,,,0.00,,2013-10-19 23:52:00,
2013-10-19 19:11:00,57.0,40.0,29.84,West,268,0.0,0.0,52,0.00,,,0.00,,2013-10-20 00:11:00,
2013-10-19 19:22:00,55.0,39.0,29.84,West,268,0.0,0.0,55,0.00,,,0.00,,2013-10-20 00:22:00,
2013-10-19 20:52:00,46.0,38.0,29.84,West,268,0.0,0.0,74,0.00,,,0.00,,2013-10-20 01:52:00,
2013-10-19 21:22:00,45.0,38.0,29.85,West,268,0.0,0.0,75,0.00,,,0.00,,2013-10-20 02:22:00,
2013-10-19 21:42:00,45.0,37.0,29.84,West,268,0.0,0.0,74,0.00,,,0.00,,2013-10-20 02:42:00,
2013-10-19 21:52:00,46.0,37.0,29.84,SW,227,0.0,1.0,70,0.00,,,0.00,,2013-10-20 02:52:00,
2013-10-19 22:12:00,47.0,37.0,29.84,SW,227,0.0,1.0,67,0.00,,,0.00,,2013-10-20 03:12:00,
2013-10-19 22:22:00,48.0,37.0,29.84,SSW,205,0.0,2.0,65,0.00,,,0.00,,2013-10-20 03:22:00,
2013-10-19 22:44:00,49.0,37.0,29.84,SSW,213,0.0,1.0,63,0.00,,,0.00,,2013-10-20 03:44:00,
2013-10-19 22:55:00,49.0,36.0,29.83,SSW,198,0.0,2.0,61,0.00,,,0.00,,2013-10-20 03:55:00,
2013-10-19 23:02:00,-999.0,-99.9,29.83,SSW,211,0.0,1.0,-999,-99.99,,,-99.99,,2013-10-20 04:02:00,
2013-10-19 23:14:00,49.0,37.0,29.83,SSW,211,0.0,1.0,62,0.00,,,0.00,,2013-10-20 04:14:00,
2013-10-19 23:24:00,47.0,35.0,29.83,SW,229,0.0,2.0,64,0.00,,,0.00,,2013-10-20 04:24:00,
2013-10-19 23:44:00,46.0,36.0,29.83,SW,229,0.0,1.0,67,0.00,,,0.00,,2013-10-20 04:44:00,
2013-10-19 23:54:00,46.0,36.0,29.82,SW,224,0.0,3.0,68,0.00,,,0.00,,2013-10-20 04:54:00,